Location: Unspecified
(52.8392°N, 0.0000°E)
Time: 04:49:01
(UTC+00:00)

OBJECT D - Visible Passes

Search period start: 04 April 2026 00:00
Search period end: 14 April 2026 00:00
Orbit: 791 x 796 km, 98.7° (Epoch: 28 March)

Date Brightness Start Highest point End Pass type
(mag) Time Alt. Az. Time Alt. Az. Time Alt. Az.
4 Apr ? 19:23:32 10° SW 19:27:43 24° W 19:31:54 10° NW visible
6 Apr ? 20:09:22 10° W 20:10:48 11° W 20:12:15 10° WNW visible
7 Apr ? 19:38:08 10° SW 19:41:47 19° W 19:45:27 10° NW visible
10 Apr ? 19:53:00 10° WSW 19:55:53 15° W 19:58:47 10° NW visible
11 Apr ? 19:22:43 10° SW 19:26:56 24° W 19:31:11 10° NW visible
13 Apr ? 20:08:24 10° W 20:10:00 11° W 20:11:37 10° WNW visible
